Home   Weather   Menominee   Past weeks

Flag for USA Past Weather in Menominee, Michigan, USA — Yesterday and Last 2 Weeks

Now
36 °F

Sunny.


Feels Like: 26 °F
Forecast: 26 / 34 °F
Wind: 16 mph from Southwest

Location: Door County Cherryland Airport

Current Time: Jan 18, 2017 at 2:26:37 pm

Latest Report: Jan 18, 2017 at 1:56 pm


Visibility: 10 mi

Pressure: 29.96 "Hg

Humidity: 82%

Dew Point: 31 °F

Location of MenomineeLocation

Past Weather in Menominee — Graph

°F

Menominee Temperature Yesterday

Maximum temperature yesterday: 36 °F (at 8:56 am)
Minimum temperature yesterday: 32 °F (at 4:56 pm)
Average temperature yesterday: 34 °F

High & Low Weather Summary for the Past Weeks

 TemperatureHumidityPressure
High38 °F (Jan 10, 1:56 pm)100% (Jan 3, 1:56 pm)30.88 "Hg (Jan 3, 1:56 pm)
Low-6 °F (Jan 5, 7:56 am)50% (Jan 7, 3:56 pm)29.06 "Hg (Jan 10, 4:39 pm)
Average17 °F77%30.16 "Hg
* Reported Jan 3 12:56 pm — Jan 18 12:56 pm, Menominee, Weather by CustomWeather, © 2017

Note: Actual official high and low records may vary slightly from our data, if they occured in-between our weather recording intervals... More about our weather records

Advertising

Menominee Weather History for the Previous 24 Hours

Scroll right to see more
 ConditionsComfort  
Time TempWeatherWind HumidityBarometerVisibility
12:56 pm
Wed, Jan 18
36 °FSunny.12 mph85%29.98 "Hg10 mi
12:44 pm36 °FPassing clouds.12 mph87%29.91 "Hg10 mi
11:56 am34 °FLow clouds.15 mph92%30.01 "Hg10 mi
10:56 am33 °FLow clouds.12 mph96%29.98 "Hg9 mi
9:56 am32 °FIce fog.15 mph100%30.06 "Hg4 mi
9:34 am32 °FIce fog.14 mph100%29.98 "Hg1 mi
8:56 am32 °FIce fog.12 mph96%30.05 "Hg1 mi
8:33 am32 °FFog.14 mph93%29.98 "Hg1 mi
8:17 am32 °FIce fog.10 mph93%29.98 "Hg1 mi
7:56 am32 °FFog.10 mph96%30.05 "Hg1 mi
7:29 am30 °FIce fog.8 mph100%29.99 "Hg0 mi
6:56 am31 °FIce fog.9 mph100%30.05 "Hg1 mi
6:12 am30 °FIce fog.10 mph100%29.98 "Hg1 mi
5:56 am31 °FIce fog.10 mph100%30.05 "Hg1 mi
5:05 am30 °FIce fog.9 mph100%29.97 "Hg1 mi
4:30 am32 °FFog.9 mph93%29.96 "Hg1 mi
3:56 am32 °FFog.7 mph96%30.03 "Hg0 mi
3:14 am32 °FFog.6 mph100%29.96 "Hg0 mi
2:59 am32 °FFog.3 mph100%29.96 "Hg1 mi
2:30 am34 °FFog.3 mph100%29.96 "Hg2 mi
2:24 am34 °FFog.3 mph100%29.96 "Hg1 mi
1:17 am34 °FFog.5 mph100%29.95 "Hg1 mi
12:56 am33 °FFog.6 mph100%30.02 "Hg0 mi
12:23 am34 °FFog.6 mph93%29.95 "Hg1 mi
11:56 pm
Tue, Jan 17
33 °FFog.3 mph96%30.02 "Hg0 mi
9:56 pm32 °FIce fog.5 mphN/A30.00 "Hg1 mi
9:23 pm32 °FIce fog.5 mphN/A29.93 "Hg1 mi
8:56 pm32 °FIce fog.3 mph100%29.99 "Hg1 mi
8:34 pm32 °FIce fog.6 mph100%29.92 "Hg1 mi
7:56 pm32 °FFog.7 mph100%29.99 "Hg1 mi
6:56 pm32 °FFog.9 mphN/A29.98 "Hg1 mi
5:56 pm32 °FLight snow. Fog.12 mph100%29.97 "Hg1 mi
5:16 pm32 °FLight snow. Fog.16 mph100%29.89 "Hg1 mi
4:56 pm32 °FLight snow. Fog.10 mph100%29.96 "Hg0 mi
3:56 pm33 °FFog.10 mph96%29.95 "Hg0 mi
2:56 pm34 °FFog.8 mph97%29.92 "Hg1 mi
2:09 pm36 °FLight rain. Fog.7 mph93%29.83 "Hg1 mi
Weather by CustomWeather, © 2017

See weather overviewHow to use our weather pages